write mail from CFAD0::NAKANO on 2004-08-04 23:10:27(JST).

---------------------------------------------------------------------------

    Syuichi Nakano, P. O. Box No. 32, Sumoto, Hyogo-Ken, 656-8691 Japan

     An Associate of the Minor Planet Center   snakano@cfa.harvard.edu

         http://www.oaa.gr.jp/   08-04-2004, 23:27:51 +09:00 (JST)

               OS/2 and Digital UNIX in Operating Systems

             **** Please reply ONLY to nakano@oaa.gr.jp ****











◎C/2004 L2の軌道と予報位置です



  久万の中村彰正氏から7月13日,那賀川の堀寿夫氏と前野拓氏から

16日の観測が報告されました.これらは,我が国の初観測です. CCD

全光度は,13日に17.6等,16日に18.0等と報告されています.彗星の

光度は,現在,17等級でしょう.

  

    C/2004 L2 (LINEAR)                                                    

T 2005 Nov. 14.98263 TT                                 Nakano

q   3.7812420            (2000.0)            P               Q

                   Peri.  257.25897     +0.47673562     -0.05632154

                   Node    99.21132     +0.21074259     +0.97616526

e   1.0            Incl.   62.71043     -0.85341122     +0.20959311

From 45 observations 2004 June 11-July 16.

 

Date/        TT  R.A.(2000) Decl.     Delta   r     Daily motion  Mag.  Moon Age

              h    h  m       。  ,                      ,  / PA 。  m1      。

2004 July 20 12  18 44.85  -31 47.4   4.613  5.577    10.6 / 237  18.4  128  .09

          21 12  18 44.15  -31 53.2   4.612  5.571    10.5 / 237  18.4  115  .15

          22 12  18 43.46  -31 59.0   4.612  5.565    10.5 / 237  18.4  102  .23

          23 12  18 42.77  -32 04.7   4.613  5.559    10.4 / 237  18.4   89  .33

          24 12  18 42.09  -32 10.4   4.613  5.554    10.3 / 237  18.4   76  .43

          25 12  18 41.41  -32 16.0   4.614  5.548    10.2 / 237  18.4   62  .54

          26 12  18 40.74  -32 21.5   4.615  5.542    10.1 / 237  18.4   48  .65

          27 12  18 40.07  -32 27.0   4.617  5.536    10.0 / 237  18.4   34  .76

          28 12  18 39.42  -32 32.5   4.618  5.530     9.9 / 237  18.4   19  .85

          29 12  18 38.76  -32 37.9   4.620  5.524     9.8 / 237  18.4    6  .92

          30 12  18 38.12  -32 43.2   4.623  5.519     9.6 / 237  18.4   13  .97

          31 12  18 37.48  -32 48.5   4.625  5.513     9.5 / 237  18.4   27 1.00

     Aug.  1 12  18 36.85  -32 53.8   4.628  5.507     9.4 / 236  18.4   42  .99

           2 12  18 36.22  -32 59.0   4.631  5.501     9.3 / 236  18.4   56  .96

           3 12  18 35.61  -33 04.1   4.634  5.495     9.1 / 236  18.4   71  .90

           4 12  18 35.00  -33 09.1   4.638  5.490     9.0 / 236  18.4   84  .82

           5 12  18 34.41  -33 14.2   4.642  5.484     8.9 / 236  18.4   98  .73

           6 12  18 33.82  -33 19.1   4.646  5.478     8.7 / 236  18.4  110  .64

           7 12  18 33.25  -33 24.0   4.650  5.472     8.6 / 236  18.4  123  .54

           8 12  18 32.68  -33 28.9   4.655  5.467     8.4 / 235  18.4  135  .44

           9 12  18 32.12  -33 33.6   4.660  5.461     8.3 / 235  18.4  147  .35

          10 12  18 31.58  -33 38.4   4.665  5.455     8.1 / 235  18.4  159  .26

          11 12  18 31.04  -33 43.1   4.670  5.449     8.0 / 235  18.4  170  .18

          12 12  18 30.52  -33 47.7   4.675  5.443     7.8 / 234  18.4  173  .12

          13 12  18 30.01  -33 52.2   4.681  5.438     7.7 / 234  18.4  163  .06

          14 12  18 29.51  -33 56.8   4.687  5.432     7.5 / 234  18.4  152  .03

          15 12  18 29.03  -34 01.2   4.693  5.426     7.3 / 233  18.4  140  .00

          16 12  18 28.55  -34 05.6   4.700  5.420     7.2 / 233  18.4  127  .00

          17 12  18 28.09  -34 10.0   4.706  5.415     7.0 / 232  18.4  115  .02

          18 12  18 27.65  -34 14.3   4.713  5.409     6.8 / 232  18.4  102  .06

          19 12  18 27.21  -34 18.5   4.720  5.403     6.7 / 231  18.4   89  .12

          20 12  18 26.79  -34 22.7   4.727  5.397     6.5 / 230  18.4   75  .20

          21 12  18 26.39  -34 26.9   4.734  5.392     6.3 / 230  18.4   62  .29

          22 12  18 26.00  -34 31.0   4.742  5.386     6.2 / 229  18.4   48  .40

          23 12  18 25.62  -34 35.0   4.749  5.380     6.0 / 228  18.4   35  .51

          24 12  18 25.26  -34 39.0   4.757  5.375     5.8 / 227  18.4   21  .62

          25 12  18 24.91  -34 42.9   4.765  5.369     5.7 / 226  18.4    9  .73

          26 12  18 24.57  -34 46.9   4.773  5.363     5.5 / 225  18.4   11  .83

          27 12  18 24.25  -34 50.7   4.782  5.357     5.3 / 224  18.4   25  .91

          28 12  18 23.95  -34 54.5   4.790  5.352     5.2 / 223  18.4   39  .96

          29 12  18 23.66  -34 58.3   4.799  5.346     5.0 / 222  18.4   53  .99

          30 12  18 23.39  -35 02.0   4.807  5.340     4.9 / 221  18.4   67 1.00

          31 12  18 23.13  -35 05.7   4.816  5.335     4.7 / 219  18.4   81  .97

     Sept. 1 12  18 22.88  -35 09.4   4.825  5.329     4.6 / 218  18.4   95  .93

NAKANO

         **** Don't distribute anyone except personal use only ****

                (C) Copyright 2004 OAA/ComputingSection

write mail from CFAD0::NAKANO on 2004-07-20 03:27:43(JST).

 

    C/2004 L2 (LINEAR)                                                    

T 2005 Nov. 14.80894 TT                                 Nakano

q   3.7819807            (2000.0)            P               Q

                   Peri.  257.23299     +0.47693690     -0.05603644

                   Node    99.20968     +0.21027673     +0.97625978

e   1.0            Incl.   62.69837     -0.85341367     +0.20922898

From 42 observations 2004 June 11-29.



NAKANO

         **** Don't distribute anyone except personal use only ****

                (C) Copyright 2004 OAA/ComputingSection

write mail from CFAD0::NAKANO on 2004-07-03 22:20:30(JST).

 



戻ります。